Regional Weather Roundup
Issued by NWS

Home | Current Version | Previous Version | Graphics & Text | Print | Product List | Glossary On
Versions: 1 2 3 4 5 6 7 8 9 10 11 12 13 14 15 16 17 18 19 20 21 22 23 24 25 26 27 28 29 30 31 32 33 34 35 36 37 38 39 40 41 42 43 44 45 46 47 48 49 50
000
ASUS43 KLMK 152110
RWRKY
KENTUCKY REGIONAL WEATHER ROUNDUP
NATIONAL WEATHER SERVICE LOUISVILLE KY
500 PM EDT MON SEP 15 2014

NOTE "FAIR" INDICATES FEW OR NO CLOUDS BELOW 12,000 FEET
WITH NO SIGNIFICANT WEATHER AND/OR OBSTRUCTIONS TO VISIBILITY.

KYZ001>023-026-027-061>063-070>075-152200-
WESTERN AND SOUTH CENTRAL KENTUCKY

CITY           SKY/WX    TMP DP  RH WIND       PRES   REMARKS
PADUCAH        FAIR      78  61  55 VRB5      30.07F
HENDERSON      FAIR      75  54  46 S7        30.07F
OWENSBORO      PTSUNNY   78  57  48 S10       30.08F
HOPKINSVILLE   FAIR      74  60  61 S3        30.11F
BOWLING GREEN  FAIR      74  56  53 VRB3      30.13S
GLASGOW        FAIR      73  60  64 CALM      30.14S
$$

KYZ024-025-028>034-038-045-046-053-152200-
NORTH CENTRAL KENTUCKY

CITY           SKY/WX    TMP DP  RH WIND       PRES   REMARKS
LOUISVILLE/SDF CLOUDY    74  53  48 NW6       30.13S
LOUISVILLE/LOU CLOUDY    74  53  48 NW5       30.14S
FORT KNOX      PTSUNNY   73  56  55 NW6       30.11F
$$

KYZ035>037-039>044-047>052-055>060-089>105-152200-
NORTHEAST KENTUCKY

CITY           SKY/WX    TMP DP  RH WIND       PRES   REMARKS
LEXINGTON      FAIR      75  55  49 W3        30.14F
COVINGTON      CLOUDY    68  52  56 SW6       30.13F
FRANKFORT      NOT AVBL
$$

KYZ054-064>069-076>088-106>120-152200-
SOUTHEAST KENTUCKY

CITY           SKY/WX    TMP DP  RH WIND       PRES   REMARKS
JACKSON        FAIR      72  58  61 CALM      30.15S
LONDON         FAIR      73  59  61 W5        30.16S
SOMERSET       NOT AVBL
MIDDLESBORO    LGT RAIN  73  66  77 CALM      30.15R
MONTICELLO     FAIR      71  60  68 SW6       30.16S
$$




USA.gov is the U.S. government's official web portal to all federal, state and local government web resources and services.